Vorticity
nan nan nan nan nan nan nan nan nan nan nan nan nan nan nan nan nan nan nan nan nan nan
nan 6 7 7 6 7 7 9 11 10 9 8 8 8 7 8 8 8 9 8 8 nan
nan 8 7 8 7 5 7 9 10 9 9 9 8 8 7 7 9 8 7 9 9 nan
nan 9 8 8 8 7 6 8 8 10 9 8 10 9 7 7 9 8 7 8 8 nan
nan 10 9 8 8 9 9 9 7 8 8 9 10 11 9 8 8 8 8 8 8 nan
nan 8 9 10 10 9 10 10 9 8 8 8 8 10 11 10 8 9 8 9 8 nan
nan 11 10 10 12 11 10 10 10 10 10 10 10 10 10 9 9 9 9 10 9 nan
nan 13 14 13 12 11 10 11 10 12 12 12 13 14 12 9 9 8 10 10 10 nan
nan 15 12 9 8 13 11 10 12 12 12 11 9 11 13 11 11 9 9 12 11 nan
nan 6 8 11 6 7 10 13 14 10 9 8 10 14 9 10 10 12 11 10 10 nan
nan 6 8 8 9 7 9 9 9 10 7 8 9 13 11 14 13 15 13 14 13 nan
nan 9 8 9 9 9 10 10 8 9 9 9 12 7 10 14 12 14 15 14 16 nan
nan 11 11 9 10 10 9 10 12 9 11 11 12 9 10 5 9 12 15 14 13 nan
nan nan nan nan nan nan nan nan nan nan nan nan nan nan nan nan nan nan nan nan nan nan
CAPE
1483 1144 1249 1528 1701 1778 1960 2052 2228 2612 2719 2514 2130 1865 2088 1806 1719 1648 1538 1651 1376 966
1459 1452 1447 1922 2025 1823 2144 2100 2503 2552 2785 2577 2187 1973 2184 1680 1804 1698 1624 1340 989 825
1321 1486 1547 1836 2093 2168 2339 2553 2731 2771 2721 2729 2501 2212 2039 1838 1975 1804 1593 1145 1247 911
1353 1246 1455 1525 1817 2085 2214 2592 2757 3076 2741 2968 2796 2687 2377 2179 2143 2110 1946 1516 1370 1152
1360 1345 1200 1474 1638 1936 2215 2436 2771 2779 2859 2928 2776 2858 2855 2474 2151 2308 2151 1898 1367 1112
1200 1273 1308 1394 1634 1877 2092 2249 2192 2435 2660 2781 2651 2808 2987 2909 3087 2706 2401 2250 1773 1439
1501 1579 1692 1930 2259 2222 2525 2663 2715 2687 2722 2720 2656 2633 2777 2971 2901 3099 2727 2668 2210 1773
1610 1887 2135 2536 2662 2724 2840 2902 3005 2926 2871 2771 2755 2583 2725 2965 3062 3242 3166 2780 2668 2147
2398 2592 2539 1787 1123 1510 1933 2265 2519 2443 2492 2190 2075 1821 1704 1838 2876 3223 3285 3261 2804 2515
1282 895 87 347 418 852 1373 1463 2214 1962 1851 1740 1676 1401 1228 383 1703 3044 3218 3373 3236 2522
480 533 455 364 498 719 1002 1361 1756 1993 1255 433 484 505 43 4 527 1809 2916 3267 3112 2722
778 622 689 973 740 544 684 744 917 1230 1250 1001 752 27 0 0 305 994 1700 1994 1641 1479
645 916 1007 809 559 541 424 364 241 245 341 333 351 21 1 0 375 791 1241 308 322 212
628 707 684 651 876 586 410 361 418 341 272 216 141 166 0 1 53 409 577 483 240 291